Regional Weather Roundup
Issued by NWS

Home | Current Version | Previous Version | Text Only | Print | Product List | Glossary On
Versions: 1 2 3 4 5 6 7 8 9 10 11 12 13 14 15 16 17 18 19 20 21 22 23 24 25 26 27 28 29 30 31 32 33 34 35 36 37 38 39 40 41 42 43 44 45 46 47 48 49 50
000
ASUS44 KFWD 291310
RWRTX
NORTH TEXAS HOURLY WEATHER ROUNDUP
NATIONAL WEATHER SERVICE FORT WORTH TX
800 AM CDT TUE JUL 29 2014

NOTE: "FAIR" INDICATES FEW OR NO CLOUDS BELOW 12,000 FEET WITH NO
SIGNIFICANT WEATHER AND/OR OBSTRUCTIONS TO VISIBILITY.

TXZ118-119-291400-
DALLAS/FORT WORTH METROPLEX

CITY           SKY/WX    TMP DP  RH WIND       PRES   REMARKS
DFW AIRPORT    CLOUDY    78  61  55 E8        30.14R
DALLAS LOVE    CLOUDY    77  63  61 NE5       30.14R
FTW MEACHAM    CLOUDY    78  62  57 E3        30.14R
DAL-EXECUTIVE  CLOUDY    78  61  55 E7        30.13R
FTW-ALLIANCE   CLOUDY    74  63  68 NE3       30.15R
FTW-NAS-JRB    CLOUDY    80  59  48 NE3       30.18R
FTW-SPINKS     PTSUNNY   77  63  61 CALM      30.16R
ARLINGTON      CLOUDY    78  60  53 E5        30.14R
GRAND PRAIRIE  SUNNY     77  59  53 CALM      30.15R
ADDISON        PTSUNNY   77  59  53 NE8       30.15
MESQUITE       SUNNY     72  63  73 N5        30.14R
LANCASTER      PTSUNNY   75  60  58 NE3       30.14R
$$

TXZ091>094-102>105-117-120-121-131>134-291400-
NORTH CENTRAL TEXAS

CITY           SKY/WX    TMP DP  RH WIND       PRES   REMARKS
SHRMAN/DENISON PTSUNNY   74  65  71 CALM      30.17R
GAINESVILLE    CLOUDY    72  67  83 NE9       30.17R
BOWIE          CLOUDY    72  67  85 S3        30.17R
BRIDGEPORT     CLOUDY    73  64  71 CALM      30.18R
DECATUR        CLOUDY    74  62  67 CALM      30.17R
DENTON         CLOUDY    73  67  81 CALM      30.15R
MCKINNEY       PTSUNNY   73  65  75 CALM      30.14R
GREENVILLE     PTSUNNY   73  63  68 CALM      30.15R
ROCKWALL       MOSUNNY   74  64  71 NE5       30.13R
TERRELL        MOSUNNY   73  65  75 NE3       30.14R
WAXAHACHIE     CLOUDY    74  59  58 NE3       30.15R
CLEBURNE       PTSUNNY   77  63  61 NE9       30.16R
GRANBURY       PTSUNNY   77  63  60 CALM      30.16R
$$

TXZ083>090-098>101-113>116-127>130-139>142-154-155-291400-
WESTERN NORTH TEXAS

CITY           SKY/WX    TMP DP  RH WIND       PRES   REMARKS
WICHITA FALLS  CLOUDY    73  69  87 CALM      30.15R
WF-KICKAPOO    CLOUDY    73  67  80 CALM      30.17R
VERNON         CLOUDY    73  71  91 CALM      30.18S
ABILENE        SUNNY     73  61  65 E6        30.18R
ABILENE-DYESS  SUNNY     73  62  68 E5        30.17R
BRECKENRIDGE   CLOUDY    77  61  58 E5        30.16R HAZE
GRAHAM         CLOUDY    75  62  64 CALM      30.15R
MINERAL WELLS  CLOUDY    76  60  57 NE7       30.15R
STEPHENVILLE   CLOUDY    75  62  64 NE3       30.19R
COMANCHE       MOSUNNY   70  64  82 CALM      30.17R
BROWNWOOD      MOSUNNY   73  64  73 CALM      30.16R
COLEMAN        MOSUNNY   72  63  72 CALM      30.17R
BRADY          SUNNY     73  68  83 E6        30.15S
$$

TXZ143>147-156>162-174-175-291400-
CENTRAL TEXAS

CITY           SKY/WX    TMP DP  RH WIND       PRES   REMARKS
WACO           MOSUNNY   75  67  76 NE3       30.12R
WACO-TSTC      SUNNY     73  68  83 NE6       30.12R
WACO-MCGREGOR  MOSUNNY   75  66  73 N6        30.14R
HILLSBORO      MOSUNNY   75  62  64 NE8       30.14R
CORSICANA      MOSUNNY   75  66  73 NE3       30.13R
MEXIA          PTSUNNY   75  69  79 NE6       30.11S
HEARNE         PTSUNNY  N/A N/A N/A CALM      30.10S
CAMERON        PTSUNNY   76  72  87 CALM      30.10S
TEMPLE         MOSUNNY   73  66  78 N5        30.12R
KILLEEN        PTSUNNY   75  70  83 CALM      30.13R
KILLEEN-SKYLRK MOSUNNY   75  64  69 NE5       30.12R
FORT HOOD      MOSUNNY   78  70  76 NE3       30.12R
GATESVILLE     MOSUNNY   73  68  83 NE3       30.15R
HAMILTON       PTSUNNY   74  65  74 NE5       30.17R
LAMPASAS       SUNNY     76  72  88 CALM      30.14R
$$

TXZ095>097-106>112-122>126-135>138-148>153-164>167-291400-
EAST TEXAS

CITY           SKY/WX    TMP DP  RH WIND       PRES   REMARKS
PARIS          MOSUNNY   73  61  64 E7        30.15R
SULPHUR SPRNGS PTSUNNY   74  64  68 NE3       30.16R
CLARKSVILLE    SUNNY     75  63  66 NE3       30.14R
MOUNT PLEASANT SUNNY     73  65  76 N3        30.15R
GILMER         MOSUNNY   73  66  78 CALM      30.15R
MINEOLA        PTSUNNY   75  66  73 CALM      30.14R
TYLER          PTSUNNY   76  67  73 NE5       30.13R
LONGVIEW       MOSUNNY   75  66  73 NE3       30.12R
MARSHALL       MOSUNNY   76  69  79 CALM      30.14R
ATHENS         PTSUNNY   72  68  88 N6        30.12R
JACKSONVILLE   PTSUNNY   74  69  85 N6        30.14S
HENDERSON      PTSUNNY   74  70  86 NE3       30.13R
NACOGDOCHES    CLOUDY    73  72  94 CALM      30.12R
LUFKIN         CLOUDY    77  72  84 NE3       30.11R
$$

SUPPLEMENTAL OBSERVATIONS (CENTRAL)

CITY           SKY/WX    TMP DP  RH WIND       PRES   REMARKS
CADDO GRASSLND   N/A     70  66  88 CALM        N/A
PAT MAYSE LAKE   N/A     72  64  78 CALM        N/A
GREENVILLE       N/A     73  63  68 NE3         N/A
CEDAR HILL       N/A     75  59  57 NE1         N/A
PALESTINE        N/A     73  72  94 CALM        N/A
MCGREGOR         N/A     75  68  78 NE6         N/A
TEMPLE           N/A     75  70  83 NE8         N/A
$$

SUPPLEMENTAL OBSERVATIONS (WEST)

CITY           SKY/WX    TMP DP  RH WIND       PRES   REMARKS
MILLERS CREEK    N/A     73  63  68 NE5         N/A
POSSUM KINGDOM   N/A     75  61  60 E6          N/A
LBJ GRASSLAND    N/A    N/A N/A N/A E2          N/A
GRANBURY         N/A     77  63  61 E2          N/A
HAMBY            N/A     73  59  60 SE7         N/A
IVIE RESERVOIR   N/A     75  66  73 E8          N/A
COLORADO BEND    N/A     73  66  78 E5          N/A
$$

SUPPLEMENTAL OBSERVATIONS (EAST)

CITY           SKY/WX    TMP DP  RH WIND       PRES   REMARKS
CLARKSVILLE      N/A     75  64  69 NE5         N/A
TEXARKANA        N/A     72  66  83 NE1         N/A
LINDEN           N/A     75  66  73 NE1         N/A
GILMER           N/A     75  64  69 NE2         N/A
HENDERSON        N/A     73  68  83 CALM        N/A
LUFKIN           N/A     75  73  94 MISG        N/A
N SABINE NF      N/A     73  72  94 MISG        N/A
S SABINE NF      N/A     73  72  94 CALM        N/A
$$

SUPPLEMENTAL OBSERVATIONS ARE A COLLECTION OF AUTOMATED INSTRUMENTS
THAT ARE MAINTAINED BY A VARIETY OF FEDERAL AND STATE AGENCIES.
CERTAIN ELEMENTS...SUCH AS HUMIDITY VALUES AND SUSTAINED WIND
SPEEDS...MAY BE APPROXIMATED.




USA.gov is the U.S. government's official web portal to all federal, state and local government web resources and services.